Location: Bayshore Village Mobile Home Park
(26.6945°N, 81.8642°W)
Time: 16:15:30
(UTC+00:00)

ATLAS 2AS CENTAUR R/B - Pass Details

Date: 17 June 2021
Orbit: 949 x 1263 km, 63.7° (Epoch: 22 July)

Event Time Altitude Azimuth Distance (km) Brightness Sun altitude
Rises 09:57:08 0° 200° (SSW) 4,127 5.3 -8.0°
Reaches altitude 10° 09:59:52 10° 198° (SSW) 3,190 4.7 -7.5°
Maximum altitude 10:07:37 74° 115° (ESE) 1,308 3.3 -6.0°
Drops below altitude 10° 10:15:29 10° 32° (NNE) 3,235 6.4 -4.5°
Sets 10:18:15 0° 30° (NNE) 4,187 7.0 -4.0°
